[[{"header":{"parameterUnit":"m.s-1","parameterCategory":1,"la1":30.2991,"la2":30.254,"lo1":-89.0895,"lo2":-89.0444,"dy":0.0017,"dx":0.0017,"nx":28,"ny":28,"refTime":"2025-01-05T03:00:00:Z","depth":0,"parameterNumber":2,"parameterNumberName":"U-component_of_WINDS"},"data":[0,0,0,0,0,0,0,0,0,0,0,0,0,0,0,0,0,0,0,0,0,0,0,0,0,0,0,0,0,0,0,0,0,0,0,0,0,0,0,0,0,0,0,0,0,0,0,0,0,0,0,0,0,0,0,0,0,0,-5.2361,-5.2362,0,-5.2495,-5.2497,-5.2498,-5.2523,-5.2522,-5.2521,-5.252,-5.2655,-5.2659,-5.2664,0,0,0,0,0,0,0,0,0,0,0,0,0,-5.2124,-5.2128,-5.2361,-5.2362,-5.2364,-5.2495,-5.2497,-5.2498,-5.2523,-5.2522,-5.252,-5.2519,-5.2653,-5.2659,-5.2664,0,0,0,0,0,0,0,0,0,0,0,0,0,-5.2239,-5.213,-5.236,-5.2392,-5.2396,-5.2494,-5.2497,-5.2499,-5.2523,-5.2522,-5.252,-5.2518,-5.2651,-5.2658,-5.2665,-5.274,0,0,-5.2686,-5.2689,0,0,0,0,0,0,0,0,-5.2233,-5.2248,-5.2386,-5.239,-5.2395,-5.2491,-5.2463,-5.258,-5.2524,-5.2475,-5.252,-5.2518,-5.2601,-5.2612,-5.2641,-5.2746,-5.2752,-5.2687,-5.2691,-5.2694,-5.2696,0,0,0,0,0,0,0,-5.2225,-5.2242,-5.2414,-5.2388,-5.2393,-5.2399,-5.2414,-5.2485,-5.2545,-5.2479,-5.2481,-5.2497,-5.2603,-5.2634,-5.2644,-5.2754,-5.2686,-5.2693,-5.2697,-5.2699,-5.2928,-5.293,0,0,0,0,0,0,-5.2211,-5.2235,-5.2409,-5.2418,-5.2308,-5.2405,-5.2421,-5.2461,-5.2545,-5.2556,-5.2498,-5.2498,-5.2623,-5.2636,-5.2649,-5.2742,-5.2694,-5.27,-5.2704,-5.2927,-5.2929,-5.2931,0,0,0,0,0,0,-5.2206,-5.2227,-5.2404,-5.2327,-5.235,-5.2411,-5.2456,-5.2465,-5.2496,-5.2559,-5.257,-5.2518,-5.2622,-5.2639,-5.2717,-5.2747,-5.2703,-5.271,-5.2924,-5.2927,-5.293,-5.2929,0,0,0,0,0,0,-5.2199,-5.2225,-5.2254,-5.2328,-5.2354,-5.2471,-5.2458,-5.2469,-5.2508,-5.2508,-5.2581,-5.2592,-5.2622,-5.2707,-5.2724,-5.2756,-5.2715,-5.2922,-5.2926,-5.2929,-5.2926,-5.2931,-5.2936,0,0,0,0,0,-5.2191,-5.2248,-5.2255,-5.2276,-5.2392,-5.2472,-5.2487,-5.2522,-5.251,-5.254,-5.2581,-5.2589,-5.2742,-5.2715,-5.2734,-5.2768,-5.292,-5.2925,-5.2929,-5.2924,-5.293,-5.2935,0,0,0,0,0,0,-5.2175,-5.2258,-5.2267,-5.235,-5.2404,-5.2476,-5.2515,-5.2527,-5.2585,-5.2583,-5.2623,-5.264,-5.2715,-5.275,-5.2719,-5.2846,-5.283,-5.2838,-5.282,-5.2826,-5.2831,-5.282,-5.2721,0,0,0,0,0,-5.2181,-5.2239,-5.2309,-5.2375,-5.2402,-5.2454,-5.249,-5.2512,-5.2569,-5.2592,-5.2639,-5.2693,-5.2754,-5.2792,-5.2851,-5.2933,-5.2948,-5.2966,-5.297,-5.2974,-5.298,-5.3025,-5.3033,-5.2945,-5.2945,-5.2945,0,0,-5.2194,-5.2247,-5.2281,-5.2373,-5.2418,-5.2477,-5.2473,-5.2535,-5.2579,-5.2601,-5.2678,-5.2714,-5.2778,-5.2858,-5.2896,-5.2889,-5.3008,-5.2979,-5.2982,-5.2986,-5.303,-5.3039,-5.3046,-5.2948,-5.2948,-5.2947,0,0,-5.2248,-5.2294,-5.2354,-5.2399,-5.2467,-5.2502,-5.2516,-5.2587,-5.2612,-5.269,-5.2708,-5.2761,-5.2864,-5.2909,-5.2945,-5.3017,-5.3027,-5.3035,-5.3058,-5.3102,-5.3109,-5.3115,-5.314,-5.3148,-5.3042,-5.3042,-5.3042,0,-5.2255,-5.2345,-5.2383,-5.2446,-5.2485,-5.251,-5.2571,-5.2613,-5.2696,-5.2722,-5.2715,-5.2845,-5.2889,-5.298,-5.2998,-5.3027,-5.3044,-5.3026,-5.3105,-5.3112,-5.3118,-5.3142,-5.3151,-5.3042,-5.3042,-5.3042,-5.3042,0,-5.2351,-5.2413,-5.2453,-5.2534,-5.2579,-5.264,-5.2687,-5.2728,-5.2747,-5.2782,-5.2861,-5.2916,-5.2986,-5.301,-5.3029,-5.3103,-5.3097,-5.3097,-5.3081,-5.3126,-5.3149,-5.3159,-5.3043,-5.3043,-5.3043,-5.3043,0,0,-5.2396,-5.2498,-5.2512,-5.2549,-5.2626,-5.2675,-5.2738,-5.2807,-5.2841,-5.2898,-5.2951,-5.3038,-5.3039,-5.308,-5.3104,-5.3143,-5.3196,-5.3138,-5.314,-5.3145,-5.328,-5.3279,-5.3289,-5.3204,-5.3206,-5.3207,-5.3275,0,-5.2457,-5.257,-5.2607,-5.27,-5.2758,-5.2783,-5.2837,-5.289,-5.2925,-5.2979,-5.3018,-5.3078,-5.3075,-5.31,-5.3139,-5.3181,-5.3223,-5.3177,-5.3252,-5.3254,-5.3233,-5.3301,-5.33,-5.336,-5.3284,-5.3286,-5.3287,0,-5.2544,-5.2603,-5.2702,-5.2773,-5.2799,-5.2847,-5.2914,-5.2966,-5.3026,-5.3049,-5.3096,-5.3118,-5.3183,-5.3166,-5.3257,-5.3225,-5.3258,-5.3283,-5.3286,-5.3293,-5.3271,-5.3308,-5.3381,-5.3389,-5.3302,-5.33,-5.3299,0,-5.2565,-5.267,-5.2743,-5.2774,-5.2858,-5.2892,-5.2928,-5.2988,-5.3028,-5.3086,-5.3113,-5.3178,-5.3214,-5.3264,-5.3303,-5.3287,-5.339,-5.3376,-5.3409,-5.3408,-5.3428,-5.3426,-5.3505,-5.3453,-5.3453,-5.3452,-5.3452,0,-5.2629,-5.2688,-5.2754,-5.2798,-5.2865,-5.2908,-5.2973,-5.3011,-5.3064,-5.3116,-5.3142,-5.319,-5.324,-5.3294,-5.3326,-5.3395,-5.3412,-5.3431,-5.3438,-5.3428,-5.3425,-5.3448,-5.3444,-5.3455,-5.3454,-5.3454,-5.3453,0,-5.2663,-5.271,-5.279,-5.2864,-5.2884,-5.293,-5.2993,-5.3037,-5.3074,-5.314,-5.3158,-5.3215,-5.3281,-5.3326,-5.341,-5.3431,-5.3506,-5.3513,-5.3485,-5.3489,-5.3519,-5.3515,-5.3615,-5.363,-5.3569,-5.3569,-5.357,0,-5.27,-5.2746,-5.2826,-5.2863,-5.29,-5.2959,-5.3,-5.3044,-5.3086,-5.3159,-5.3194,-5.3262,-5.3318,-5.3422,-5.3471,-5.3536,-5.3544,-5.3575,-5.3553,-5.3541,-5.3542,-5.3538,-5.3543,-5.3577,-5.3577,-5.3578,-5.3578,0,-5.276,-5.2781,-5.2839,-5.2906,-5.2955,-5.3009,-5.3064,-5.3093,-5.3146,-5.3191,-5.3259,-5.3303,-5.339,-5.3456,-5.3526,-5.3563,-5.3579,-5.3585,-5.3596,-5.3584,-5.3565,-5.3575,-5.3492,-5.3581,-5.3581,-5.3581,-5.3581,-5.3581,-5.2796,-5.2838,-5.2901,-5.2965,-5.3011,-5.3062,-5.3107,-5.315,-5.3207,-5.3281,-5.3304,-5.3374,-5.3435,-5.353,-5.3569,-5.3624,-5.3621,-5.3637,-5.3641,-5.3644,-5.3643,-5.3558,-5.3637,-5.3637,-5.3637,-5.3637,-5.3637,0,-5.2856,-5.2898,-5.2957,-5.3033,-5.3083,-5.3096,-5.3157,-5.3198,-5.326,-5.3316,-5.3371,-5.3449,-5.3514,-5.3569,-5.3636,-5.367,-5.3679,-5.3686,-5.3683,-5.3691,-5.3643,-5.3626,-5.3678,-5.3678,-5.3678,-5.3678,-5.3678,-5.3678,-5.2893,-5.2965,-5.2993,-5.3088,-5.313,-5.32,-5.3233,-5.328,-5.3325,-5.3411,-5.3465,-5.3501,-5.3556,-5.3628,-5.3688,-5.3703,-5.3725,-5.3731,-5.3746,-5.3699,-5.3695,-5.369,-5.3674,-5.3736,-5.3736,-5.379,-5.3791,-5.3791]},{"header":{"parameterUnit":"m.s-1","parameterCategory":1,"la1":30.2991,"la2":30.254,"lo1":-89.0895,"lo2":-89.0444,"dy":0.0017,"dx":0.0017,"nx":28,"ny":28,"refTime":"2025-01-05T03:00:00:Z","depth":0,"parameterNumber":3,"parameterNumberName":"V-component_of_WINDS"},"data":[0,0,0,0,0,0,0,0,0,0,0,0,0,0,0,0,0,0,0,0,0,0,0,0,0,0,0,0,0,0,0,0,0,0,0,0,0,0,0,0,0,0,0,0,0,0,0,0,0,0,0,0,0,0,0,0,0,0,6.1193,6.1194,0,6.1328,6.1329,6.1331,6.1333,6.1331,6.1329,6.1328,6.1464,6.1469,6.1474,0,0,0,0,0,0,0,0,0,0,0,0,0,6.0938,6.0943,6.1193,6.1195,6.1196,6.1328,6.1329,6.1331,6.1333,6.1331,6.1329,6.1327,6.1463,6.1469,6.1475,0,0,0,0,0,0,0,0,0,0,0,0,0,6.1058,6.0944,6.1193,6.1213,6.1216,6.1327,6.133,6.1332,6.1334,6.1331,6.1328,6.1326,6.1461,6.1468,6.1476,6.1575,0,0,6.15,6.1503,0,0,0,0,0,0,0,0,6.1052,6.1068,6.1208,6.1212,6.1216,6.1311,6.129,6.1413,6.1334,6.1289,6.1328,6.1325,6.1415,6.1427,6.1457,6.1581,6.1587,6.15,6.1505,6.1509,6.1511,0,0,0,0,0,0,0,6.1043,6.1062,6.1246,6.121,6.1215,6.1216,6.123,6.1313,6.1365,6.1293,6.1293,6.1309,6.1417,6.145,6.1461,6.1589,6.15,6.1507,6.1512,6.1515,6.1806,6.1809,0,0,0,0,0,0,6.1031,6.1055,6.1242,6.125,6.1126,6.1223,6.1239,6.1283,6.1364,6.1374,6.1311,6.1309,6.1438,6.1451,6.1465,6.159,6.1508,6.1516,6.152,6.1803,6.1807,6.181,0,0,0,0,0,0,6.1025,6.1047,6.1236,6.1153,6.1177,6.123,6.1279,6.1287,6.132,6.1378,6.1387,6.1336,6.1436,6.1454,6.1549,6.1595,6.1519,6.1526,6.1799,6.1804,6.1808,6.1839,0,0,0,0,0,0,6.1018,6.1045,6.1083,6.1154,6.1182,6.1318,6.1282,6.1291,6.1334,6.1332,6.1403,6.1412,6.1436,6.1537,6.1557,6.1604,6.1533,6.1796,6.1801,6.1807,6.1834,6.1844,6.1852,0,0,0,0,0,6.1009,6.1085,6.1085,6.1108,6.123,6.132,6.1336,6.1362,6.1337,6.1377,6.1414,6.141,6.1586,6.1547,6.1569,6.1619,6.1793,6.18,6.1806,6.183,6.1842,6.1852,0,0,0,0,0,0,6.1017,6.1094,6.1095,6.1196,6.1252,6.132,6.137,6.1373,6.1436,6.1431,6.146,6.1476,6.1571,6.1604,6.1559,6.1722,6.1687,6.1698,6.1697,6.1709,6.1718,6.1709,6.1539,0,0,0,0,0,6.1031,6.1098,6.1161,6.1245,6.1273,6.1317,6.1357,6.1372,6.143,6.1454,6.1498,6.1554,6.1623,6.1667,6.1733,6.1838,6.1856,6.1884,6.1893,6.19,6.1911,6.1973,6.1987,6.1832,6.1832,6.1832,0,0,6.1059,6.111,6.115,6.1248,6.1292,6.1362,6.1336,6.141,6.1462,6.1464,6.1558,6.1592,6.1658,6.1759,6.1806,6.179,6.1957,6.1909,6.1915,6.1921,6.1981,6.1996,6.2009,6.1837,6.1836,6.1835,0,0,6.1148,6.1192,6.1268,6.1314,6.1383,6.1412,6.1431,6.1499,6.1523,6.1617,6.1622,6.1684,6.1801,6.1848,6.1888,6.1998,6.1998,6.2019,6.2067,6.2127,6.214,6.2151,6.2193,6.2208,6.2028,6.2028,6.2029,0,6.1175,6.128,6.1306,6.1382,6.1426,6.1433,6.1511,6.1554,6.1641,6.1672,6.1652,6.1802,6.1845,6.196,6.1988,6.2018,6.2042,6.2011,6.2136,6.2147,6.2158,6.2199,6.2214,6.2031,6.203,6.203,6.203,0,6.1312,6.1385,6.1438,6.1524,6.1574,6.165,6.1689,6.1736,6.1748,6.178,6.1877,6.1931,6.201,6.2037,6.2048,6.2155,6.2143,6.2129,6.2095,6.2174,6.2214,6.2229,6.2034,6.2033,6.2032,6.2032,0,0,6.1409,6.151,6.1529,6.157,6.1648,6.1705,6.1783,6.1861,6.1903,6.1963,6.203,6.213,6.212,6.2164,6.2181,6.2233,6.2322,6.2214,6.2216,6.2235,6.2447,6.2459,6.2477,6.2322,6.2325,6.2328,6.2443,0,6.1508,6.1647,6.1675,6.1796,6.1866,6.1874,6.1943,6.1998,6.2031,6.2095,6.213,6.2202,6.2181,6.2209,6.2261,6.23,6.2366,6.2292,6.2387,6.239,6.2373,6.2497,6.2508,6.2614,6.2458,6.246,6.2462,0,6.1642,6.1708,6.1837,6.1909,6.1939,6.2,6.2077,6.2137,6.2201,6.2221,6.2273,6.2285,6.2368,6.2329,6.2445,6.2394,6.2435,6.2461,6.2465,6.2477,6.2433,6.2514,6.2648,6.2665,6.2486,6.2484,6.2482,0,6.1705,6.1825,6.1919,6.1953,6.2038,6.2081,6.2119,6.2181,6.2227,6.2294,6.2325,6.2399,6.2441,6.2499,6.2531,6.2499,6.2646,6.2608,6.2667,6.2666,6.2699,6.2697,6.2844,6.272,6.272,6.272,6.2719,0,6.1814,6.1894,6.1948,6.2006,6.2096,6.2127,6.2215,6.2252,6.2308,6.2374,6.2385,6.2447,6.2485,6.2553,6.2578,6.2673,6.269,6.271,6.2717,6.2711,6.2709,6.2739,6.2734,6.2724,6.2723,6.2722,6.2721,0,6.19,6.1939,6.2042,6.2116,6.2136,6.22,6.2263,6.232,6.2353,6.2437,6.2459,6.2511,6.2592,6.2629,6.2728,6.2746,6.2854,6.2854,6.2833,6.2836,6.2894,6.2889,6.3068,6.3094,6.295,6.2952,6.2953,0,6.1968,6.203,6.2111,6.2157,6.2196,6.2269,6.2318,6.2351,6.2401,6.2481,6.253,6.2611,6.2678,6.2807,6.2854,6.2931,6.2935,6.2992,6.2946,6.294,6.294,6.2937,6.2945,6.3001,6.3002,6.3004,6.3005,0,6.2087,6.2105,6.2174,6.2252,6.231,6.2373,6.2434,6.2471,6.2514,6.257,6.2654,6.2707,6.281,6.2892,6.2972,6.3011,6.3017,6.3019,6.3037,6.3033,6.302,6.3031,6.2859,6.3015,6.3014,6.3013,6.3012,6.3012,6.2169,6.2226,6.2293,6.2371,6.2421,6.2479,6.2538,6.2579,6.265,6.2737,6.2753,6.2843,6.2908,6.3018,6.306,6.3132,6.3118,6.3143,6.3151,6.3157,6.3162,6.3007,6.3146,6.3146,6.3145,6.3145,6.3145,0,6.2292,6.2336,6.2407,6.2494,6.2557,6.2556,6.2625,6.2677,6.2757,6.2818,6.2885,6.2983,6.3063,6.3117,6.3199,6.3246,6.3251,6.3266,6.3265,6.3274,6.3168,6.3145,6.3262,6.3262,6.3262,6.3262,6.3261,6.3261,6.2363,6.246,6.2486,6.2609,6.2653,6.2742,6.2782,6.2836,6.2886,6.2995,6.3062,6.3097,6.3157,6.3243,6.3318,6.3332,6.3363,6.338,6.3394,6.3293,6.3281,6.327,6.3249,6.3385,6.3385,6.3495,6.3496,6.3497]}]]